• In Czech Republic
  • List of Countries
  • For 7 days
  • Water Temperature
  • Satellite Maps
  • Weather Map
  • Weather Widgets
  • user-avatar
    Login

    Hourly Weather Semey

    Today, 23 June, Saturday

    Time Temperature Precipitation Wind Pressure Humidity
    00:00 +27°C° 0 mm 4 mps 733 mmHg 29%
    01:00 +26°C° 0 mm 4 mps 734 mmHg 32%
    02:00 +25°C° 0 mm 4 mps 734 mmHg 34%
    03:00 +25°C° 0 mm 3 mps 734 mmHg 39%
    04:00 +24°C° 0 mm 3 mps 734 mmHg 43%
    05:00 +25°C° 0 mm 3 mps 734 mmHg 44%
    06:00 +27°C° 0 mm 3 mps 734 mmHg 40%
    07:00 +28°C° 0 mm 3 mps 734 mmHg 37%
    08:00 +30°C° 0 mm 4 mps 734 mmHg 33%
    09:00 +32°C° 0 mm 4 mps 734 mmHg 29%
    10:00 +34°C° 0 mm 5 mps 733 mmHg 26%
    11:00 +35°C° 0 mm 4 mps 733 mmHg 24%
    12:00 +35°C° 0 mm 4 mps 733 mmHg 24%
    13:00 +35°C° 0 mm 4 mps 733 mmHg 24%
    14:00 +36°C° 0 mm 4 mps 733 mmHg 24%
    15:00 +35°C° 0 mm 4 mps 733 mmHg 29%
    16:00 +33°C° 0 mm 5 mps 734 mmHg 33%
    17:00 +32°C° 0 mm 5 mps 734 mmHg 37%
    18:00 +30°C° 0 mm 5 mps 734 mmHg 42%
    19:00 +28°C° 0 mm 4 mps 734 mmHg 47%
    20:00 +27°C° 0 mm 4 mps 734 mmHg 53%
    21:00 +26°C° 0.2 mm 3 mps 734 mmHg 56%
    22:00 +25°C° 0.2 mm 3 mps 734 mmHg 59%
    23:00 +24°C° 0.2 mm 3 mps 734 mmHg 62%

    Tomorrow, 24 June, Sunday

    Time Temperature Precipitation Wind Pressure Humidity
    00:00 +24°C° 0.3 mm 3 mps 734 mmHg 65%
    01:00 +22°C° 0.3 mm 3 mps 734 mmHg 68%
    02:00 +23°C° 0.3 mm 2 mps 734 mmHg 71%
    03:00 +23°C° 0.1 mm 2 mps 734 mmHg 71%
    04:00 +23°C° 0.1 mm 2 mps 734 mmHg 70%
    05:00 +23°C° 0.1 mm 1 mps 734 mmHg 70%
    06:00 +25°C° 0 mm 2 mps 734 mmHg 62%
    07:00 +27°C° 0 mm 2 mps 734 mmHg 55%
    08:00 +28°C° 0 mm 2 mps 734 mmHg 47%
    09:00 +30°C° 0 mm 2 mps 734 mmHg 41%
    10:00 +31°C° 0 mm 2 mps 734 mmHg 35%
    11:00 +34°C° 0 mm 2 mps 734 mmHg 29%
    12:00 +34°C° 0 mm 2 mps 734 mmHg 28%
    13:00 +34°C° 0 mm 2 mps 734 mmHg 28%
    14:00 +34°C° 0 mm 2 mps 734 mmHg 27%
    15:00 +34°C° 0 mm 3 mps 734 mmHg 29%
    16:00 +33°C° 0 mm 3 mps 734 mmHg 32%
    17:00 +33°C° 0 mm 3 mps 733 mmHg 34%
    18:00 +30°C° 0 mm 4 mps 734 mmHg 41%
    19:00 +28°C° 0 mm 4 mps 734 mmHg 48%
    20:00 +26°C° 0 mm 4 mps 734 mmHg 55%
    21:00 +25°C° 0.4 mm 5 mps 734 mmHg 59%
    22:00 +23°C° 0.4 mm 5 mps 734 mmHg 63%
    23:00 +22°C° 0.4 mm 5 mps 734 mmHg 67%

    Day after tomorrow, 25 June, Monday

    Time Temperature Precipitation Wind Pressure Humidity
    00:00 +22°C° 0.4 mm 5 mps 734 mmHg 68%
    01:00 +22°C° 0.4 mm 4 mps 734 mmHg 69%
    02:00 +21°C° 0.4 mm 4 mps 734 mmHg 70%
    03:00 +21°C° 0 mm 3 mps 735 mmHg 69%
    04:00 +21°C° 0 mm 3 mps 735 mmHg 69%
    05:00 +21°C° 0 mm 2 mps 735 mmHg 69%
    06:00 +21°C° 0.7 mm 2 mps 735 mmHg 71%
    07:00 +21°C° 0.7 mm 3 mps 735 mmHg 74%
    08:00 +21°C° 0.7 mm 4 mps 736 mmHg 77%
    09:00 +22°C° 1.1 mm 3 mps 736 mmHg 73%
    10:00 +22°C° 1.1 mm 3 mps 736 mmHg 70%
    11:00 +24°C° 1.1 mm 3 mps 736 mmHg 67%
    12:00 +25°C° 0 mm 4 mps 736 mmHg 60%
    13:00 +26°C° 0 mm 4 mps 736 mmHg 54%
    14:00 +28°C° 0 mm 5 mps 736 mmHg 47%
    15:00 +28°C° 0 mm 5 mps 735 mmHg 46%
    16:00 +28°C° 0 mm 5 mps 735 mmHg 45%
    17:00 +28°C° 0 mm 4 mps 735 mmHg 44%
    18:00 +27°C° 0 mm 5 mps 735 mmHg 50%
    19:00 +25°C° 0 mm 5 mps 735 mmHg 57%
    20:00 +23°C° 0 mm 5 mps 735 mmHg 63%
    21:00 +22°C° 0.8 mm 4 mps 735 mmHg 67%
    22:00 +21°C° 0.8 mm 3 mps 735 mmHg 70%
    23:00 +20°C° 0.8 mm 2 mps 735 mmHg 74%

    26 June, Tuesday

    Time Temperature Precipitation Wind Pressure Humidity
    00:00 +20°C° 0 mm 3 mps 735 mmHg 76%
    01:00 +19°C° 0 mm 3 mps 735 mmHg 78%
    02:00 +19°C° 0 mm 3 mps 735 mmHg 80%
    03:00 +19°C° 0 mm 3 mps 736 mmHg 78%
    04:00 +19°C° 0 mm 3 mps 736 mmHg 77%
    05:00 +19°C° 0 mm 3 mps 737 mmHg 76%
    06:00 +21°C° 0 mm 3 mps 737 mmHg 67%
    07:00 +24°C° 0 mm 3 mps 737 mmHg 58%
    08:00 +26°C° 0 mm 4 mps 737 mmHg 49%
    09:00 +27°C° 0 mm 4 mps 737 mmHg 44%
    10:00 +29°C° 0 mm 5 mps 737 mmHg 38%
    11:00 +30°C° 0 mm 5 mps 737 mmHg 32%
    12:00 +30°C° 0 mm 5 mps 737 mmHg 32%
    13:00 +30°C° 0 mm 5 mps 737 mmHg 32%
    14:00 +30°C° 0 mm 5 mps 737 mmHg 32%
    15:00 +30°C° 0 mm 5 mps 737 mmHg 32%
    16:00 +29°C° 0 mm 5 mps 737 mmHg 32%
    17:00 +29°C° 0 mm 4 mps 737 mmHg 32%
    18:00 +28°C° 0 mm 4 mps 737 mmHg 35%
    19:00 +27°C° 0 mm 4 mps 737 mmHg 38%
    20:00 +26°C° 0 mm 4 mps 737 mmHg 41%
    21:00 +25°C° 0 mm 4 mps 737 mmHg 42%
    22:00 +23°C° 0 mm 4 mps 737 mmHg 44%
    23:00 +23°C° 0 mm 4 mps 737 mmHg 46%

    27 June, Wednesday

    Time Temperature Precipitation Wind Pressure Humidity
    00:00 +22°C° 0 mm 4 mps 737 mmHg 48%
    01:00 +21°C° 0 mm 3 mps 737 mmHg 50%
    02:00 +20°C° 0 mm 3 mps 737 mmHg 52%
    03:00 +20°C° 0 mm 3 mps 737 mmHg 53%
    04:00 +20°C° 0 mm 3 mps 737 mmHg 53%
    05:00 +20°C° 0 mm 3 mps 737 mmHg 54%
    06:00 +22°C° 0 mm 3 mps 737 mmHg 49%
    07:00 +25°C° 0 mm 4 mps 737 mmHg 43%
    08:00 +27°C° 0 mm 4 mps 737 mmHg 38%
    09:00 +28°C° 0 mm 5 mps 737 mmHg 35%
    10:00 +30°C° 0 mm 5 mps 737 mmHg 32%
    11:00 +32°C° 0 mm 5 mps 737 mmHg 29%
    12:00 +30°C° 0.1 mm 5 mps 737 mmHg 33%
    13:00 +29°C° 0.1 mm 4 mps 737 mmHg 37%
    14:00 +28°C° 0.1 mm 4 mps 737 mmHg 41%
    15:00 +27°C° 0.2 mm 4 mps 736 mmHg 43%
    16:00 +27°C° 0.2 mm 3 mps 736 mmHg 45%
    17:00 +27°C° 0.2 mm 3 mps 736 mmHg 47%
    18:00 +25°C° 1.6 mm 3 mps 736 mmHg 56%
    19:00 +24°C° 1.6 mm 3 mps 736 mmHg 64%
    20:00 +21°C° 1.6 mm 3 mps 736 mmHg 73%
    21:00 +21°C° 0.9 mm 3 mps 736 mmHg 75%
    22:00 +20°C° 0.9 mm 3 mps 736 mmHg 78%
    23:00 +19°C° 0.9 mm 4 mps 736 mmHg 81%

    28 June, Thursday

    Time Temperature Precipitation Wind Pressure Humidity
    00:00 +19°C° 0 mm 3 mps 735 mmHg 81%
    01:00 +19°C° 0 mm 3 mps 735 mmHg 82%
    02:00 +19°C° 0 mm 2 mps 735 mmHg 83%
    03:00 +19°C° 0 mm 2 mps 735 mmHg 81%
    04:00 +19°C° 0 mm 2 mps 735 mmHg 79%
    05:00 +20°C° 0 mm 2 mps 734 mmHg 77%
    06:00 +21°C° 0 mm 2 mps 734 mmHg 70%
    07:00 +24°C° 0 mm 2 mps 734 mmHg 62%
    08:00 +26°C° 0 mm 2 mps 734 mmHg 54%
    09:00 +27°C° 0 mm 3 mps 734 mmHg 48%
    10:00 +29°C° 0 mm 3 mps 734 mmHg 41%
    11:00 +30°C° 0 mm 4 mps 734 mmHg 35%
    12:00 +30°C° 0 mm 4 mps 734 mmHg 33%
    13:00 +30°C° 0 mm 4 mps 734 mmHg 31%
    14:00 +32°C° 0 mm 4 mps 734 mmHg 30%
    15:00 +31°C° 0 mm 3 mps 734 mmHg 30%
    16:00 +31°C° 0 mm 3 mps 734 mmHg 29%
    17:00 +31°C° 0 mm 2 mps 734 mmHg 29%
    18:00 +29°C° 0 mm 2 mps 734 mmHg 34%
    19:00 +28°C° 0 mm 2 mps 733 mmHg 38%
    20:00 +26°C° 0 mm 2 mps 733 mmHg 43%
    21:00 +25°C° 0 mm 2 mps 733 mmHg 46%
    22:00 +24°C° 0 mm 2 mps 733 mmHg 50%
    23:00 +24°C° 0 mm 1 mps 733 mmHg 54%
    Show more